Wind_Speed
14 20 21 19 17 15 14 13 11 10 9 8 12 15 16 17 18 20 20 19 19 18 17 16 17 19 20 21 20 18 17 15 15 15 14 13 12 12 12 11 10 9 8 7 6 5 4 3 2 2 2 2 2 2 2 2 3 5 6 6 7 7 7
15 20 20 18 17 16 14 14 13 11 10 9 11 14 16 16 17 19 20 20 20 20 20 20 20 20 21 22 21 19 18 17 16 16 14 13 12 12 13 12 11 10 9 8 7 6 6 5 4 3 3 3 3 3 3 3 4 4 5 5 5 6 6
16 21 20 18 18 16 14 14 13 12 12 11 11 13 14 16 16 18 20 21 21 21 22 22 21 22 23 23 21 20 19 18 18 16 15 14 14 13 13 12 11 10 10 9 9 8 7 6 4 4 4 4 4 4 5 5 5 6 6 6 6 5 6
16 20 19 18 18 16 15 14 14 14 14 12 12 13 14 15 16 18 20 21 21 20 20 21 22 23 23 22 21 20 19 19 19 17 16 15 14 13 13 12 11 10 10 10 9 8 7 6 4 4 4 4 5 5 6 7 7 7 8 8 8 7 7
16 18 18 18 17 16 14 14 15 16 16 14 14 14 14 14 15 17 20 20 20 19 20 21 22 23 23 22 22 21 21 21 20 19 18 16 15 14 14 13 12 12 11 9 8 8 7 6 5 4 4 5 6 6 7 8 9 9 10 10 10 10 9
17 17 19 19 18 16 15 15 16 18 18 16 15 15 13 12 14 16 19 20 19 19 19 19 20 21 22 22 22 22 22 21 20 19 18 17 17 16 16 15 13 12 11 9 9 8 7 6 5 5 5 6 7 8 9 9 10 11 11 11 12 12 11
15 17 20 20 18 17 16 15 18 20 21 19 18 17 14 12 13 16 18 19 19 19 18 17 18 19 20 21 22 22 22 21 20 19 18 17 17 18 17 15 14 13 12 10 9 8 7 6 6 6 7 7 9 10 10 11 11 12 13 13 13 13 13
15 18 20 21 19 18 16 16 20 23 23 21 19 16 14 13 14 15 16 17 18 19 18 17 18 19 20 20 20 21 21 21 20 19 18 17 17 17 16 15 14 13 12 11 10 9 8 8 8 8 8 9 10 11 12 12 13 13 14 14 14 13 13
17 18 19 20 20 18 17 17 20 23 22 21 18 16 16 16 15 15 16 17 18 19 19 18 19 20 21 21 20 20 20 20 20 19 18 18 17 16 15 14 14 13 12 11 10 9 8 8 8 9 9 9 10 11 12 13 14 14 15 15 15 14 14
19 19 19 20 20 18 18 19 21 23 22 20 17 17 18 17 16 16 16 17 18 19 20 20 20 21 20 21 21 21 21 20 20 19 19 18 17 16 14 14 13 12 11 10 9 8 9 9 8 8 9 10 11 12 13 14 14 15 15 16 16 15 14
19 18 19 21 21 20 20 22 23 22 20 18 18 18 18 18 17 16 14 16 18 19 20 20 20 21 21 21 21 20 20 19 19 19 18 18 16 15 14 13 11 11 10 9 9 9 9 9 8 8 9 10 11 12 13 14 14 15 15 15 15 15 14
18 17 18 20 21 23 24 23 22 21 18 18 19 19 19 20 19 16 14 15 16 18 19 20 20 22 22 22 21 20 20 19 18 18 18 18 17 15 14 12 11 10 10 10 10 10 9 9 9 9 10 10 11 12 13 13 13 14 14 14 13 13 12
17 17 17 18 20 24 26 25 23 21 20 19 20 20 21 21 19 16 14 14 15 17 19 20 21 22 22 21 21 21 21 20 20 20 19 18 17 16 14 13 12 11 11 11 11 10 10 10 10 9 9 10 11 11 12 12 12 11 11 11 11 10 10
16 17 18 19 19 19 24 28 27 25 23 21 21 22 22 21 19 16 14 13 15 17 19 20 20 21 21 21 20 20 20 21 21 20 19 17 15 14 13 13 12 12 12 11 11 11 11 11 10 9 9 10 10 10 10 10 10 9 8 8 8 7 7
16 16 18 19 17 16 23 29 31 29 26 24 23 24 23 20 18 16 14 14 16 18 19 20 20 20 20 19 20 20 20 20 19 17 16 14 13 13 12 12 13 13 12 12 12 12 12 11 9 8 8 9 9 9 9 8 7 6 5 4 4 4 4
17 16 17 18 16 18 25 29 31 31 28 25 25 25 23 20 17 15 13 12 14 17 19 20 20 20 19 18 19 19 20 19 17 15 14 13 13 13 13 13 13 13 12 13 13 13 12 11 9 9 9 9 8 8 8 7 6 5 3 3 2 1 1
19 16 17 18 17 21 26 28 29 30 27 24 24 24 23 20 17 15 14 12 13 16 17 17 18 18 18 17 18 18 19 19 17 15 14 13 13 14 14 14 14 14 13 13 13 12 12 11 10 10 9 9 9 8 7 6 5 4 3 3 3 2 1
19 18 18 20 20 23 26 26 27 27 24 21 21 21 22 20 18 17 14 13 12 13 14 15 15 15 16 16 16 17 17 18 18 16 14 13 13 14 15 15 15 15 14 13 12 13 13 12 11 11 10 9 9 8 7 6 5 4 4 4 4 3 2
18 18 18 21 22 24 26 26 26 26 25 23 21 21 21 21 19 18 16 15 14 13 13 13 13 14 14 13 13 13 14 15 15 14 13 12 13 14 14 15 16 15 14 14 14 14 14 13 13 12 10 10 10 9 8 7 6 5 5 5 4 4 3
20 21 21 23 24 25 26 28 28 28 27 26 24 24 24 24 22 22 21 20 18 16 15 14 14 14 14 13 12 12 12 13 13 12 12 13 13 13 14 15 16 17 17 16 16 15 14 14 13 13 12 11 11 10 8 8 7 7 6 5 5 4 3
22 23 24 24 26 27 28 30 31 30 29 28 27 27 27 27 26 26 25 23 22 20 19 18 18 17 16 14 14 13 13 13 13 14 14 15 15 14 14 15 17 18 19 18 17 16 16 16 15 14 13 12 12 11 9 9 8 7 7 7 7 6 6
21 21 21 22 23 25 27 29 30 31 30 29 29 29 29 30 29 29 27 26 25 24 23 22 20 19 18 16 15 15 14 14 14 15 15 15 16 16 15 16 17 19 21 20 19 19 18 17 16 14 13 13 13 11 10 10 9 9 9 10 10 9 7
20 19 19 19 19 19 20 22 23 25 26 27 28 29 30 31 31 31 30 30 28 26 25 23 22 20 19 18 16 16 15 15 15 15 15 16 16 16 16 18 19 20 22 22 21 20 19 18 17 16 16 16 14 12 12 12 11 11 11 12 13 13 11
21 19 18 17 18 18 18 17 18 19 21 23 25 26 27 27 28 29 29 28 27 26 25 23 21 20 20 19 18 17 17 17 16 16 16 16 15 15 17 20 21 22 23 24 23 22 21 20 20 20 19 17 15 14 15 14 13 13 13 14 15 16 16
24 21 19 17 17 17 17 17 17 18 19 20 21 22 23 23 24 24 24 24 24 23 22 21 20 20 20 19 19 18 18 18 18 17 16 16 16 15 17 20 23 24 24 24 24 23 23 23 22 21 19 18 16 16 16 15 15 14 14 15 16 17 17
27 25 22 19 18 17 17 18 18 18 18 19 20 20 21 21 22 22 23 23 23 22 21 20 21 21 21 21 20 19 20 20 20 19 17 17 17 16 16 18 22 25 24 24 24 24 24 24 22 21 20 19 18 17 17 16 16 16 16 17 18 18 19
29 28 26 23 21 20 20 20 19 19 19 19 20 21 22 23 23 24 24 24 24 23 23 23 23 23 22 22 21 20 20 21 21 21 19 19 19 17 16 16 19 22 23 23 24 25 24 24 23 22 21 21 20 19 18 18 18 19 19 20 20 21 21
32 31 29 26 25 24 23 22 21 20 20 20 22 24 25 25 25 25 25 25 25 25 25 25 25 25 24 23 23 22 21 22 23 23 21 20 19 18 17 16 16 19 21 22 24 24 24 24 24 23 23 23 22 21 21 21 22 22 22 22 21 21 21
31 31 30 29 28 28 26 25 24 22 21 21 23 25 26 26 26 25 25 25 25 26 26 25 25 25 25 25 25 24 24 24 25 25 24 22 21 20 19 18 17 18 19 20 22 22 23 23 23 23 24 24 24 24 24 24 24 23 22 22 22 22 22
30 30 29 29 30 29 27 26 24 23 22 22 23 24 25 25 26 26 25 25 25 26 26 26 26 27 27 27 27 27 27 27 28 28 27 25 23 22 21 20 20 19 19 20 20 20 21 21 22 22 23 23 24 25 25 25 25 24 23 23 23 23 24
34 32 31 30 30 30 28 27 26 24 23 23 23 23 23 23 24 25 25 26 26 26 26 26 27 27 28 28 29 29 29 29 30 30 29 29 27 26 24 23 23 22 21 21 20 20 20 20 21 22 22 22 23 24 24 25 25 24 24 24 24 25 26
39 37 35 34 34 34 32 31 30 27 25 25 24 24 23 23 23 23 24 25 26 26 26 26 27 27 27 28 28 28 29 30 31 32 32 32 32 31 29 27 26 25 24 24 23 22 22 22 22 23 23 23 24 24 25 26 26 25 24 25 26 27 28
41 39 38 39 40 40 38 36 34 32 30 29 27 26 26 25 24 24 24 24 25 25 26 26 27 27 27 27 27 27 28 29 31 32 33 34 35 34 32 30 29 28 27 27 26 25 25 25 25 26 26 26 26 27 28 28 27 27 27 28 29 30 30
41 39 39 42 44 44 43 41 39 36 34 33 31 29 28 28 27 26 25 25 25 25 26 26 26 27 26 26 26 26 27 28 29 30 32 33 34 34 33 32 32 30 30 30 30 29 29 28 28 29 29 29 30 31 31 31 30 30 30 31 32 33 34
40 36 35 39 44 45 44 43 42 40 37 36 35 32 30 29 29 28 27 27 26 26 26 27 27 27 27 27 27 27 27 27 28 29 30 30 31 31 32 32 33 32 32 33 33 33 32 31 31 31 32 32 33 34 34 34 33 33 34 35 36 37 37
41 37 35 36 39 42 42 42 43 42 40 39 37 36 33 32 31 30 29 29 28 27 27 28 28 28 28 29 28 29 29 29 29 30 30 30 30 30 31 31 32 33 34 34 35 35 35 35 34 34 34 35 35 36 36 36 36 37 37 37 38 38 39
43 41 38 37 38 39 40 40 41 42 42 41 39 38 37 34 33 32 31 30 30 29 28 29 29 29 29 30 30 30 30 30 30 30 31 31 30 30 31 31 32 33 34 35 36 36 37 37 37 37 37 37 37 37 38 38 39 39 39 39 40 40 41
45 43 40 37 37 38 38 39 40 41 42 43 42 40 39 37 35 34 33 32 32 31 30 30 30 30 30 31 31 30 30 31 31 31 31 31 31 31 32 33 33 34 35 35 36 37 38 38 39 39 39 39 39 39 40 40 41 41 41 42 42 43 44
Wind_Direction
199 205 210 210 208 203 203 207 211 221 222 209 200 195 194 200 204 206 208 209 212 213 210 209 209 208 209 209 206 202 201 200 202 206 203 196 187 180 181 185 183 182 189 195 196 197 204 215 216 219 236 253 274 298 322 340 354 6 17 25 29 25 19
192 200 203 201 205 205 202 208 216 223 228 217 205 199 196 199 204 208 209 209 211 212 210 209 209 207 208 209 207 203 200 199 201 204 201 196 190 186 185 188 189 189 192 196 201 205 209 215 221 226 242 254 264 274 283 294 308 324 340 355 7 12 14
184 192 202 206 208 210 208 213 219 223 228 222 206 201 200 200 203 209 212 212 212 213 212 211 210 210 210 207 203 201 199 197 198 198 198 195 191 189 187 188 191 193 193 193 198 206 210 214 218 227 245 258 267 275 280 283 286 291 301 311 323 336 346
189 185 202 210 205 204 208 214 217 217 222 222 210 204 204 204 205 208 212 213 214 215 215 214 213 213 214 208 200 197 196 194 194 194 195 194 190 185 184 186 190 193 195 194 196 203 209 214 218 228 246 262 273 279 279 280 281 282 286 291 296 303 310
205 185 191 202 199 201 211 215 214 211 215 220 218 214 209 207 208 207 208 211 214 216 216 216 215 214 215 211 202 196 194 193 193 192 192 189 183 178 179 184 187 190 194 195 197 201 205 210 216 229 245 259 269 273 274 275 278 280 282 285 288 291 294
214 194 189 197 201 206 215 219 214 209 212 219 223 219 209 207 210 206 205 207 211 217 219 220 218 215 214 212 204 198 195 195 194 193 191 185 179 177 179 182 184 186 187 189 194 197 200 206 215 229 243 254 262 267 271 274 277 279 281 282 285 288 291
208 196 190 196 203 209 217 221 215 208 209 215 219 214 200 199 206 205 203 204 209 216 220 218 215 213 212 211 206 200 196 195 194 192 190 185 182 182 181 180 180 181 180 180 186 193 200 212 223 234 244 253 261 267 271 274 275 277 280 282 284 287 290
202 195 191 196 202 208 217 221 215 210 207 212 217 209 195 195 200 199 199 203 208 214 216 212 207 204 204 204 203 199 195 193 191 190 189 187 188 188 184 179 178 177 176 179 186 195 208 224 236 244 250 255 260 267 272 275 276 277 278 281 283 286 288
204 198 194 198 201 206 217 217 211 208 205 209 212 202 193 195 194 191 194 199 205 209 210 207 201 199 199 196 194 194 192 190 189 190 191 191 193 192 187 181 178 177 180 186 193 203 217 230 241 248 253 257 260 263 267 271 274 275 277 279 280 282 285
203 202 199 201 201 206 212 207 203 203 202 204 204 199 196 194 188 187 190 194 200 205 207 203 197 195 196 195 193 192 190 190 192 193 194 194 194 192 187 182 180 180 186 193 201 213 224 230 235 239 245 252 259 263 267 270 272 273 274 275 275 276 280
202 204 204 199 196 198 200 197 197 199 199 199 200 201 199 192 182 179 183 190 197 202 205 202 195 190 191 194 195 193 191 192 192 192 192 193 192 189 187 184 183 185 193 201 209 217 224 229 230 232 238 249 259 266 271 273 273 272 270 269 270 272 274
205 205 204 197 192 192 193 195 198 198 196 198 201 201 196 185 177 174 180 188 193 198 202 200 194 190 190 194 195 194 192 190 188 188 188 189 189 188 188 188 188 191 198 206 212 216 220 222 225 232 244 258 269 273 274 273 271 270 270 269 267 265 265
207 200 194 190 189 192 195 200 207 202 196 199 201 195 188 181 175 176 186 194 196 198 201 199 196 193 191 194 197 197 194 189 187 187 187 188 189 189 190 191 191 195 201 205 209 213 215 217 221 231 247 262 270 273 273 271 268 266 266 267 266 262 258
206 195 187 185 188 195 199 203 208 203 195 197 196 188 185 182 179 182 190 199 202 200 200 199 197 195 193 194 198 200 198 195 193 192 191 191 191 191 192 193 194 199 203 204 206 209 213 216 219 228 246 257 260 262 263 262 262 262 263 265 266 264 259
204 193 181 177 183 196 196 196 199 198 194 196 192 187 187 186 184 185 188 195 200 198 197 196 195 195 194 194 196 201 202 201 197 195 194 193 194 195 196 197 200 204 204 203 205 210 215 217 219 226 240 249 251 249 247 247 251 256 261 266 270 268 261
207 194 172 163 170 187 188 188 192 193 194 195 192 190 192 190 185 182 182 187 189 190 191 192 191 190 188 187 193 199 203 201 199 198 199 200 202 204 205 205 207 209 208 207 209 212 216 218 220 226 233 238 240 238 236 234 235 238 244 251 256 258 250
208 194 168 160 167 177 180 184 189 191 192 193 193 194 194 191 185 182 181 180 177 178 181 182 183 181 176 178 187 195 199 200 200 202 204 207 210 212 212 213 213 213 213 213 214 215 217 218 221 226 230 230 230 230 228 225 224 223 221 221 221 221 212
209 193 170 164 167 171 177 185 190 190 189 190 192 195 195 193 189 185 183 180 177 179 178 175 177 177 174 178 185 190 194 199 202 205 208 211 214 216 217 216 216 216 216 216 216 216 217 218 221 225 227 225 225 225 220 216 217 216 215 214 212 210 200
211 198 180 169 167 169 176 183 188 191 191 190 190 192 195 197 195 189 188 187 188 189 184 177 178 179 178 184 188 188 191 197 202 207 211 215 218 219 220 220 218 217 217 216 217 216 216 219 222 223 222 221 222 221 216 214 218 221 222 221 214 206 194
212 204 193 183 179 178 178 179 183 187 189 190 190 190 192 196 195 193 194 195 195 194 190 184 185 188 189 193 196 198 199 201 203 207 213 219 221 221 221 221 219 218 217 219 218 216 216 221 223 222 217 216 218 218 216 218 224 230 233 233 231 228 224
213 208 201 193 188 186 184 183 184 186 188 189 191 191 192 192 193 196 198 198 197 196 193 190 191 195 198 200 204 209 211 211 210 212 216 221 224 224 222 220 219 219 219 220 219 216 216 219 222 223 220 217 217 216 218 225 231 239 247 250 247 239 234
214 211 207 200 194 189 187 186 188 190 190 192 193 193 192 193 195 198 200 200 200 198 196 195 194 197 201 203 207 213 218 221 221 221 224 227 228 229 227 222 220 219 218 219 218 217 218 219 221 224 223 220 220 219 222 230 238 246 256 263 264 258 250
212 211 209 209 208 204 198 192 191 192 192 194 197 198 196 196 198 200 201 202 201 200 199 197 196 198 202 205 210 216 222 228 231 231 233 234 233 233 230 225 221 219 218 218 218 218 219 220 221 222 221 221 221 222 224 231 239 246 254 262 269 273 275
213 212 211 213 216 213 206 201 200 199 197 197 199 201 201 201 202 203 203 203 202 202 200 197 198 201 203 206 211 216 223 231 235 238 240 241 239 236 231 226 222 220 219 217 217 218 218 220 221 222 223 222 220 219 221 226 233 240 247 255 262 270 275
217 216 215 216 217 213 207 207 210 211 208 203 201 201 201 201 201 202 203 204 205 205 202 199 202 206 207 208 211 215 222 229 233 238 244 249 250 246 237 227 222 221 221 218 217 218 219 221 223 225 226 226 223 220 220 223 229 235 240 247 254 260 265
221 221 218 217 219 218 216 218 220 218 213 208 205 204 204 203 202 202 202 204 206 207 206 207 212 214 212 212 214 215 219 225 230 234 242 250 255 255 247 233 225 223 222 220 218 219 222 224 226 228 229 228 227 226 225 227 233 238 243 247 251 254 257
225 224 220 216 218 221 222 224 223 218 213 210 207 207 206 205 205 205 206 207 207 207 209 213 217 220 219 219 220 219 219 223 228 232 237 245 253 258 255 244 231 226 225 223 221 222 224 226 227 229 229 228 227 227 227 231 235 240 245 250 254 257 258
227 225 221 216 215 219 222 222 221 216 211 209 208 209 208 207 206 205 206 208 209 209 211 214 218 220 221 223 224 224 221 222 226 229 234 240 248 256 258 254 241 232 229 227 226 226 228 230 230 229 227 226 226 225 226 230 235 240 245 251 256 259 261
225 223 221 217 216 218 220 220 219 213 208 207 208 209 210 209 207 207 208 208 208 208 209 212 215 218 219 220 222 222 220 221 224 226 229 235 243 251 256 255 249 242 237 234 232 231 232 233 233 230 226 224 224 225 227 231 237 242 247 252 256 259 261
224 223 222 221 220 220 221 222 221 215 209 208 209 211 213 212 209 207 207 208 209 209 209 209 211 215 217 217 218 219 218 218 221 223 226 230 236 243 250 254 252 248 244 241 238 237 236 236 236 234 231 228 227 228 231 236 241 246 249 253 256 259 261
222 222 223 225 224 224 226 227 227 223 216 213 215 216 217 217 214 210 207 207 209 211 211 212 213 215 217 219 219 219 218 217 218 221 225 228 231 235 241 247 250 249 247 246 244 242 241 240 240 240 238 236 235 235 238 242 246 250 252 255 257 259 260
219 221 224 227 227 228 230 230 230 228 222 219 220 222 223 222 221 218 214 211 210 211 212 213 215 217 219 220 221 221 220 219 218 219 222 227 230 231 232 237 243 246 247 247 245 245 245 244 243 244 244 243 243 244 246 249 251 252 254 255 257 258 260
222 225 228 228 226 227 230 232 231 228 225 222 221 224 226 225 224 223 221 218 215 214 214 214 216 218 219 220 221 222 222 222 221 220 221 224 228 230 230 231 235 240 244 246 246 245 245 245 245 246 247 247 246 247 249 251 251 252 254 256 258 259 261
225 230 232 228 225 224 227 230 231 228 225 224 223 224 225 226 226 224 224 224 222 220 219 219 219 220 222 224 225 225 226 227 227 227 228 228 230 232 232 232 233 235 238 243 245 246 246 246 246 247 247 247 247 249 251 252 253 253 254 256 259 261 263
224 229 232 228 224 223 223 226 229 230 228 227 226 226 226 227 228 227 226 227 226 226 225 224 224 224 226 228 230 231 231 232 232 233 234 235 236 237 236 236 236 235 235 238 241 244 246 246 247 247 248 248 249 251 253 253 254 255 256 258 262 265 268
222 226 231 230 228 226 224 224 226 230 232 232 230 230 229 229 229 229 229 229 229 230 230 230 229 229 230 232 234 234 234 234 235 235 237 238 239 241 241 241 241 240 239 239 240 242 245 246 247 248 248 249 251 252 253 254 256 258 260 262 265 268 271
223 225 229 231 230 229 229 227 226 228 232 235 235 234 233 233 232 231 231 231 231 232 233 234 234 234 234 234 235 236 237 237 237 238 239 240 241 242 244 245 245 244 244 244 244 244 245 246 247 248 248 249 250 252 253 256 258 261 263 266 268 270 272
222 222 225 230 232 231 231 231 230 229 231 234 237 238 237 237 237 235 234 234 233 234 236 237 238 238 238 238 238 238 239 241 241 241 242 242 243 243 244 245 246 247 247 247 247 247 247 247 248 249 250 251 252 253 255 257 260 263 266 268 270 272 273
Height
5877 5878 5880 5882 5883 5885 5887 5888 5890 5892 5893 5894 5895 5897 5898 5900 5903 5905 5907 5909 5910 5912 5914 5916 5918 5921 5923 5924 5926 5927 5929 5930 5931 5933 5934 5935 5937 5938 5939 5940 5942 5943 5944 5945 5946 5947 5948 5948 5949 5950 5950 5950 5950 5950 5951 5951 5951 5951 5951 5952 5952 5952 5952
5875 5877 5878 5880 5881 5883 5885 5886 5889 5890 5892 5893 5894 5895 5897 5899 5901 5903 5905 5907 5909 5911 5913 5915 5917 5919 5921 5922 5924 5926 5927 5928 5930 5931 5933 5934 5936 5937 5938 5939 5940 5942 5943 5944 5945 5946 5947 5947 5948 5949 5949 5950 5950 5950 5950 5951 5951 5951 5951 5951 5952 5952 5951
5874 5876 5877 5878 5879 5881 5883 5885 5887 5889 5891 5892 5893 5894 5895 5897 5899 5901 5904 5906 5908 5910 5911 5913 5915 5918 5919 5921 5923 5924 5926 5927 5928 5930 5931 5933 5934 5935 5937 5938 5939 5941 5942 5943 5944 5945 5946 5947 5947 5948 5949 5949 5949 5950 5950 5950 5950 5950 5950 5950 5951 5951 5951
5872 5874 5875 5876 5877 5878 5880 5883 5885 5887 5889 5890 5891 5892 5893 5895 5897 5899 5902 5904 5907 5909 5911 5913 5914 5916 5918 5920 5922 5923 5924 5925 5926 5928 5929 5931 5933 5934 5936 5937 5938 5940 5941 5942 5943 5944 5945 5945 5946 5947 5948 5948 5949 5949 5949 5949 5949 5949 5949 5949 5950 5950 5950
5869 5871 5872 5874 5875 5876 5878 5881 5883 5885 5887 5888 5890 5891 5892 5894 5896 5898 5900 5903 5906 5908 5909 5911 5913 5915 5917 5919 5921 5922 5923 5924 5924 5926 5927 5929 5931 5933 5934 5936 5937 5939 5940 5941 5942 5943 5944 5944 5945 5946 5947 5947 5948 5948 5948 5948 5948 5948 5948 5948 5948 5949 5949
5866 5868 5870 5872 5873 5875 5877 5879 5881 5884 5885 5887 5888 5890 5891 5893 5895 5897 5899 5901 5904 5906 5907 5909 5911 5914 5916 5918 5920 5921 5922 5923 5924 5925 5926 5928 5929 5930 5932 5934 5936 5938 5939 5940 5941 5942 5943 5944 5944 5945 5946 5946 5946 5947 5947 5947 5947 5947 5947 5947 5947 5948 5948
5864 5865 5867 5869 5871 5873 5875 5877 5880 5882 5883 5885 5887 5888 5890 5892 5893 5895 5897 5900 5902 5904 5906 5908 5910 5913 5915 5917 5919 5920 5921 5922 5923 5924 5925 5926 5927 5929 5930 5932 5934 5936 5938 5939 5940 5941 5942 5943 5943 5944 5945 5945 5945 5945 5945 5946 5946 5946 5946 5946 5946 5946 5947
5861 5863 5865 5867 5869 5871 5873 5875 5878 5880 5881 5883 5885 5887 5889 5890 5892 5894 5896 5898 5900 5902 5905 5907 5909 5911 5913 5915 5918 5919 5920 5921 5922 5923 5924 5926 5926 5927 5929 5931 5933 5935 5936 5938 5939 5940 5941 5941 5942 5943 5943 5944 5944 5944 5944 5944 5944 5945 5945 5945 5945 5945 5945
5858 5860 5862 5865 5867 5869 5871 5873 5876 5878 5880 5882 5884 5885 5887 5888 5890 5892 5893 5896 5898 5901 5903 5905 5907 5909 5911 5914 5916 5918 5919 5920 5921 5922 5923 5925 5925 5927 5928 5929 5931 5933 5935 5936 5938 5939 5940 5940 5941 5941 5941 5942 5942 5942 5943 5943 5943 5943 5943 5943 5943 5944 5944
5855 5857 5860 5862 5864 5867 5869 5871 5873 5876 5878 5880 5882 5884 5885 5887 5889 5890 5892 5894 5896 5899 5901 5903 5905 5907 5910 5912 5914 5916 5918 5919 5921 5922 5923 5924 5925 5926 5927 5928 5930 5932 5933 5935 5936 5937 5938 5939 5939 5939 5940 5940 5940 5941 5941 5941 5941 5941 5941 5941 5942 5942 5942
5852 5855 5857 5859 5862 5864 5867 5869 5871 5874 5877 5879 5881 5882 5884 5886 5888 5889 5891 5893 5895 5897 5899 5902 5904 5906 5908 5911 5913 5915 5917 5918 5920 5921 5922 5923 5924 5925 5926 5927 5929 5930 5932 5933 5934 5935 5936 5937 5938 5938 5938 5938 5938 5939 5939 5939 5939 5939 5939 5939 5940 5940 5941
5850 5853 5855 5858 5860 5862 5865 5867 5870 5873 5875 5877 5879 5881 5883 5885 5886 5888 5890 5892 5894 5896 5898 5900 5902 5904 5906 5909 5912 5914 5915 5917 5918 5920 5921 5922 5923 5924 5925 5926 5927 5928 5930 5931 5932 5933 5934 5935 5936 5936 5936 5936 5937 5937 5937 5937 5937 5937 5937 5938 5938 5939 5939
5848 5851 5853 5856 5858 5861 5863 5866 5868 5871 5874 5876 5877 5879 5881 5883 5885 5887 5889 5891 5893 5895 5897 5899 5901 5903 5905 5907 5910 5912 5914 5915 5917 5918 5919 5921 5922 5923 5924 5925 5926 5927 5928 5929 5930 5931 5932 5933 5934 5935 5935 5935 5935 5935 5935 5935 5935 5935 5935 5936 5936 5937 5938
5846 5849 5851 5853 5856 5859 5861 5864 5866 5869 5872 5874 5876 5878 5880 5882 5883 5885 5888 5889 5891 5894 5896 5898 5900 5902 5904 5906 5908 5910 5912 5914 5915 5917 5918 5919 5920 5921 5922 5923 5924 5925 5925 5927 5928 5929 5930 5931 5932 5933 5933 5934 5934 5934 5934 5933 5933 5934 5934 5934 5935 5935 5936
5844 5846 5848 5851 5854 5857 5859 5862 5865 5868 5870 5872 5874 5876 5878 5880 5882 5884 5886 5888 5890 5892 5894 5896 5898 5900 5902 5904 5906 5908 5910 5912 5914 5916 5917 5918 5919 5920 5920 5921 5922 5923 5924 5925 5926 5927 5928 5929 5930 5931 5932 5932 5932 5932 5932 5932 5932 5933 5933 5933 5934 5934 5934
5842 5845 5847 5849 5852 5855 5857 5860 5863 5866 5868 5870 5872 5874 5876 5878 5881 5883 5885 5887 5889 5891 5893 5895 5897 5899 5900 5902 5904 5906 5908 5911 5913 5915 5916 5917 5917 5918 5919 5919 5920 5921 5922 5923 5924 5925 5926 5927 5928 5929 5930 5930 5930 5930 5931 5931 5932 5932 5932 5932 5932 5933 5933
5840 5843 5846 5848 5851 5854 5856 5858 5861 5863 5866 5868 5870 5873 5875 5877 5879 5881 5884 5886 5888 5890 5892 5894 5895 5897 5899 5900 5901 5903 5906 5909 5911 5913 5914 5915 5915 5915 5916 5917 5918 5919 5920 5921 5922 5923 5924 5925 5926 5927 5928 5928 5929 5929 5930 5930 5930 5931 5931 5931 5931 5932 5932
5839 5842 5844 5846 5849 5852 5855 5857 5859 5862 5865 5867 5869 5872 5874 5876 5877 5880 5882 5885 5887 5889 5890 5892 5894 5895 5897 5898 5900 5902 5904 5907 5909 5911 5912 5912 5913 5913 5914 5914 5916 5917 5918 5919 5920 5921 5922 5923 5924 5925 5926 5927 5927 5928 5928 5929 5929 5930 5930 5930 5930 5931 5931
5837 5840 5843 5846 5848 5851 5854 5856 5859 5861 5863 5865 5868 5870 5872 5874 5876 5879 5881 5883 5885 5887 5889 5890 5892 5894 5895 5897 5899 5901 5903 5905 5907 5908 5909 5910 5910 5910 5911 5912 5914 5915 5916 5917 5918 5919 5920 5921 5922 5923 5924 5925 5926 5926 5927 5927 5928 5928 5929 5929 5929 5929 5930
5834 5837 5841 5843 5846 5849 5851 5854 5856 5858 5860 5863 5865 5867 5869 5872 5874 5877 5879 5881 5883 5885 5887 5889 5891 5893 5894 5896 5898 5900 5901 5903 5905 5906 5907 5907 5907 5908 5909 5910 5911 5912 5914 5914 5916 5917 5918 5919 5920 5921 5922 5923 5924 5925 5925 5926 5926 5926 5927 5927 5928 5928 5928
5832 5834 5837 5840 5843 5845 5848 5851 5853 5855 5858 5860 5862 5864 5866 5869 5872 5874 5876 5879 5881 5883 5886 5888 5890 5891 5893 5895 5896 5898 5900 5901 5902 5903 5904 5904 5905 5906 5907 5908 5909 5910 5911 5912 5913 5915 5916 5917 5918 5919 5920 5921 5922 5923 5923 5924 5924 5924 5925 5925 5926 5926 5927
5829 5832 5834 5837 5840 5842 5845 5848 5850 5852 5854 5857 5859 5861 5864 5867 5869 5871 5874 5877 5879 5881 5884 5885 5887 5890 5891 5893 5895 5896 5898 5899 5900 5900 5901 5901 5902 5903 5904 5905 5906 5907 5908 5909 5911 5912 5913 5915 5916 5917 5918 5919 5920 5921 5921 5921 5922 5922 5922 5922 5923 5923 5924
5827 5829 5832 5834 5836 5839 5842 5845 5847 5850 5852 5854 5857 5859 5862 5865 5867 5869 5871 5874 5876 5879 5881 5883 5885 5887 5889 5891 5892 5894 5895 5896 5896 5897 5898 5898 5899 5900 5901 5902 5903 5904 5905 5906 5908 5909 5910 5912 5913 5914 5915 5916 5917 5918 5919 5919 5919 5920 5920 5920 5920 5920 5921
5824 5827 5829 5831 5833 5836 5839 5842 5844 5847 5849 5852 5854 5857 5859 5862 5865 5867 5870 5872 5874 5877 5878 5880 5882 5884 5886 5888 5889 5891 5892 5893 5893 5894 5895 5895 5897 5897 5898 5898 5899 5900 5902 5903 5905 5906 5907 5908 5909 5911 5912 5914 5915 5916 5916 5917 5917 5917 5918 5918 5918 5918 5919
5821 5824 5827 5829 5831 5834 5837 5839 5841 5844 5846 5849 5852 5854 5857 5859 5862 5864 5867 5869 5872 5874 5876 5878 5880 5881 5883 5885 5886 5888 5889 5890 5891 5891 5892 5893 5893 5894 5895 5895 5896 5897 5898 5900 5902 5903 5904 5905 5906 5908 5909 5911 5912 5913 5914 5914 5915 5915 5916 5916 5916 5917 5917
5819 5822 5825 5827 5829 5832 5834 5836 5839 5841 5844 5846 5849 5851 5854 5856 5858 5861 5863 5865 5868 5870 5873 5875 5876 5878 5879 5881 5883 5884 5886 5887 5888 5889 5890 5890 5890 5891 5891 5892 5893 5894 5895 5897 5899 5900 5901 5902 5904 5905 5907 5908 5909 5910 5911 5911 5912 5912 5913 5914 5914 5915 5915
5817 5820 5823 5826 5828 5830 5832 5834 5836 5839 5841 5843 5845 5848 5850 5852 5854 5857 5859 5861 5864 5866 5868 5870 5872 5874 5876 5878 5880 5881 5883 5885 5886 5887 5888 5888 5888 5888 5889 5889 5890 5891 5893 5894 5896 5897 5898 5900 5901 5903 5904 5905 5906 5907 5908 5908 5909 5909 5910 5910 5911 5912 5912
5815 5817 5820 5824 5826 5827 5829 5832 5834 5836 5839 5841 5843 5844 5846 5848 5850 5853 5855 5857 5859 5862 5864 5866 5868 5870 5873 5875 5876 5878 5880 5882 5883 5884 5885 5886 5886 5886 5886 5887 5888 5889 5890 5891 5893 5894 5896 5897 5899 5900 5901 5902 5903 5904 5905 5905 5906 5906 5907 5907 5908 5908 5908
5811 5814 5817 5820 5823 5824 5827 5829 5831 5833 5835 5837 5839 5841 5843 5845 5847 5849 5851 5854 5856 5858 5860 5862 5864 5867 5869 5871 5873 5874 5876 5878 5880 5881 5882 5883 5884 5884 5884 5885 5885 5886 5887 5888 5890 5892 5893 5894 5896 5897 5898 5899 5900 5901 5902 5902 5902 5903 5904 5904 5904 5904 5904
5808 5811 5813 5816 5818 5821 5823 5825 5827 5829 5832 5834 5836 5838 5840 5842 5844 5846 5848 5851 5853 5855 5857 5859 5861 5863 5865 5867 5868 5870 5872 5874 5876 5877 5879 5880 5881 5881 5882 5882 5883 5884 5885 5886 5887 5888 5890 5891 5892 5894 5895 5896 5897 5898 5898 5898 5899 5899 5900 5901 5901 5901 5901
5805 5808 5810 5813 5815 5817 5819 5822 5824 5826 5828 5831 5833 5835 5837 5840 5842 5844 5846 5848 5849 5851 5853 5855 5857 5859 5861 5862 5864 5866 5867 5869 5871 5873 5875 5876 5877 5878 5879 5880 5880 5881 5882 5883 5884 5886 5887 5888 5889 5890 5891 5892 5893 5894 5894 5894 5895 5896 5897 5897 5897 5897 5897
5802 5805 5808 5810 5812 5814 5816 5818 5821 5823 5826 5828 5830 5832 5834 5837 5839 5841 5843 5845 5847 5848 5850 5852 5853 5855 5857 5859 5860 5862 5863 5865 5866 5868 5870 5872 5873 5874 5875 5876 5877 5878 5879 5880 5881 5883 5884 5885 5886 5887 5888 5889 5890 5890 5890 5890 5891 5892 5893 5893 5893 5893 5893
5799 5802 5804 5806 5808 5810 5812 5814 5817 5820 5823 5825 5827 5829 5831 5834 5836 5838 5840 5842 5844 5845 5847 5848 5850 5852 5853 5855 5857 5858 5860 5861 5862 5864 5865 5867 5868 5869 5871 5872 5873 5875 5876 5877 5878 5879 5880 5881 5882 5883 5884 5885 5886 5886 5886 5887 5888 5889 5889 5889 5889 5888 5888
5794 5797 5799 5801 5803 5806 5808 5811 5813 5816 5819 5822 5824 5826 5828 5830 5833 5835 5837 5839 5840 5842 5844 5846 5847 5849 5850 5852 5853 5855 5856 5857 5859 5860 5861 5862 5863 5864 5866 5868 5869 5871 5873 5874 5875 5875 5877 5878 5879 5880 5881 5882 5882 5882 5882 5883 5884 5885 5885 5885 5884 5884 5884
5790 5793 5795 5797 5799 5802 5805 5807 5809 5812 5815 5818 5820 5823 5825 5827 5829 5831 5834 5835 5837 5839 5841 5842 5844 5846 5848 5849 5851 5852 5853 5854 5855 5856 5857 5858 5860 5861 5863 5864 5866 5867 5869 5870 5870 5871 5872 5873 5874 5876 5877 5877 5877 5878 5878 5879 5880 5880 5880 5880 5880 5880 5879
5786 5789 5791 5794 5797 5799 5801 5804 5806 5808 5811 5813 5816 5818 5821 5823 5826 5828 5830 5832 5834 5836 5837 5839 5841 5843 5845 5846 5847 5848 5849 5850 5851 5852 5854 5855 5856 5858 5859 5860 5862 5863 5864 5865 5866 5867 5868 5869 5870 5871 5872 5872 5873 5873 5873 5874 5874 5874 5875 5875 5875 5875 5874
5781 5784 5788 5791 5793 5795 5797 5800 5802 5805 5807 5809 5812 5814 5817 5820 5822 5825 5827 5828 5830 5832 5834 5835 5837 5839 5841 5842 5843 5844 5845 5846 5848 5849 5850 5852 5853 5855 5856 5857 5858 5859 5860 5861 5861 5862 5863 5864 5865 5866 5866 5867 5868 5868 5868 5868 5869 5869 5869 5870 5870 5870 5869
5777 5780 5783 5786 5789 5792 5794 5796 5799 5801 5803 5805 5808 5810 5812 5815 5818 5820 5822 5825 5827 5829 5830 5832 5833 5835 5837 5838 5839 5841 5842 5843 5844 5845 5847 5848 5849 5851 5851 5852 5853 5854 5855 5856 5857 5858 5858 5859 5860 5860 5861 5862 5862 5863 5863 5863 5863 5864 5864 5864 5864 5864 5863